Skip Page Navigation
NASA JPL Caltech
NASA Logo - Jet Propulsion Laboratory + View the NASA Portal
+ Center for Near-Earth Object Studies
JPL Home Earth Solar System Stars & Galaxies Technology
JPL Solar System Dynamics
BODIES ORBITS EPHEMERIDES TOOLS PHYSICAL DATA DISCOVERY FAQ SITE MAP
JPL Small-Body Database Browser
Search: [ help ]  
413627 (2005 UK350)
Classification: Main-belt Asteroid          SPK-ID: 2413627
Ephemeris | Orbit Diagram | Orbital Elements | Mission Design | Physical Parameters | Discovery Circumstances ]

[ show orbit diagram ]
Orbital Elements at Epoch 2459000.5 (2020-May-31.0) TDB
Reference: JPL 13 (heliocentric ecliptic J2000)
 Element Value Uncertainty (1-sigma)   Units 
e .1689632857055116 1.039e-07  
a 2.790476049501436 3.752e-08 au
q 2.318988047495137 2.7255e-07 au
i 3.718593716250935 6.0612e-06 deg
node 268.4381456677066 0.00013915 deg
peri 80.09630733618944 0.00014406 deg
M 78.85109834585157 2.7201e-05 deg
tp 2458627.575322978099
(2019-May-24.07532298)
0.00012867 TDB
period 1702.612728855508
4.66
3.4339e-05
9.402e-08
d
yr
n .2114397442817141 4.2645e-09 deg/d
Q 3.261964051507734 4.386e-08 au
  Orbit Determination Parameters
   # obs. used (total)      110  
   data-arc span      5135 days (14.06 yr)  
   first obs. used      2005-10-28  
   last obs. used      2019-11-19  
   planetary ephem.      DE431  
   SB-pert. ephem.      SB431-N16  
   condition code      0  
   norm. resid. RMS      .56392  
   source      ORB  
   producer      Otto Matic  
   solution date      2019-Dec-14 22:05:49  

Additional Information
 Earth MOID = 1.31608 au 
 Jupiter MOID = 2.18084 au 
 T_jup = 3.305 
[ hide covariance matrix ]
Orbital Elements at Epoch 2457482.5 (2016-Apr-04.0) TDB
Reference: JPL 13 (heliocentric ecliptic J2000)
 Element Value Uncertainty (1-sigma)   Units 
e .1714072324970593 1.0561e-07  
q 2.310476068753779 2.7851e-07 au
tp 2456921.254579266664
(2014-Sep-20.75457927)
0.00012722 TDB
node 268.7671794456448 0.0001397 deg
peri 79.03999352660951 0.00014426 deg
i 3.712007064166728 6.0467e-06 deg
  Orbit Determination Parameters
   # obs. used (total)      110  
   data-arc span      5135 days (14.06 yr)  
   first obs. used      2005-10-28  
   last obs. used      2019-11-19  
   planetary ephem.      DE431  
   SB-pert. ephem.      SB431-N16  
   condition code      0  
   norm. resid. RMS      .56392  
   source      ORB  
   producer      Otto Matic  
   solution date      2019-Dec-14 22:05:49  

Additional Information
 Jupiter MOID = 2.18084 au 
 T_jup = 3.305 
Orbit Covariance (6×6)
  e q tp node peri i
e 1.115253703429758E-14 -2.92949400962108E-14 -3.708038991686957E-12 1.285317869066061E-13 -1.37124572919157E-12 -2.626590657045049E-14
q -2.92949400962108E-14 7.756667129099518E-14 9.414023314670375E-12 -3.374869627545308E-13 3.581447096949545E-12 7.038164026260071E-14
tp -3.708038991686957E-12 9.414023314670375E-12 1.618545998147349E-8 -1.800858311244545E-10 4.648572093158281E-9 3.694580868199112E-12
node 1.285317869066061E-13 -3.374869627545308E-13 -1.800858311244545E-10 1.951595747355429E-8 -1.95278925612217E-8 -1.666014019254106E-10
peri -1.37124572919157E-12 3.581447096949545E-12 4.648572093158281E-9 -1.95278925612217E-8 2.08108382494263E-8 1.677769002396488E-10
i -2.626590657045049E-14 7.038164026260071E-14 3.694580868199112E-12 -1.666014019254106E-10 1.677769002396488E-10 3.656301737428078E-11

Ephemeris | Orbit Diagram | Orbital Elements | Mission Design | Physical Parameters | Discovery Circumstances ]

Physical Parameter Table
Parameter Symbol Value Units Sigma Reference Notes
absolute magnitude H 17.0   n/a MPO503524  

413627 (2005 UK350)          Discovered 2005-Oct-28 by CSS at Catalina
Reference: Last Updated: 2014-11-10
Ephemeris | Orbit Diagram | Orbital Elements | Mission Design | Physical Parameters | Discovery Circumstances ]
ABOUT SSD CREDITS/AWARDS PRIVACY/COPYRIGHT GLOSSARY LINKS
FirstGov 2020-Oct-21 17:21 UT
(server date/time)  
NASA Home Page
Site Manager:   Ryan S. Park
Webmaster  Alan B. Chamberlin